Home   Weather   Alpena   Past weeks

Flag for USA Past Weather in Alpena, Michigan, USA — Yesterday and Last 2 Weeks

Now
70 °F

Passing clouds.


Feels Like: 77 °F
Forecast: 48 / 67 °F
Wind: 14 mph from Southeast

Location: Alpena County Regional Airport

Current Time: Sep 25, 2016 at 3:09:38 PM

Latest Report: Sep 25, 2016 at 1:54 PM


Visibility: 10 mi

Pressure: 30.15 "Hg

Humidity: 47%

Dew Point: 49 °F

Location of AlpenaLocation

Past Weather in Alpena — Graph

°F

Alpena Temperature Yesterday

Maximum temperature yesterday: 65 °F (at 1:54 PM)
Minimum temperature yesterday: 40 °F (at 6:54 AM)
Average temperature yesterday: 52 °F

High & Low Weather Summary for the Past Weeks

 TemperatureHumidityPressure
High85 °F (Sep 19, 2:54 PM)97% (Sep 22, 8:54 AM)30.35 "Hg (Sep 22, 8:54 AM)
Low39 °F (Sep 25, 5:54 AM)27% (Sep 20, 3:54 PM)29.60 "Hg (Sep 10, 2:54 PM)
Average62 °F75%30.09 "Hg
* Reported Sep 10 1:54 PM — Sep 25 1:54 PM, Alpena, Weather by CustomWeather, © 2016

Note: Actual official high and low records may vary slightly from our data, if they occured in-between our weather recording intervals... More about our weather records

Advertising

Alpena Weather History for the Previous 24 Hours

Scroll right to see more
 ConditionsComfort  
Time TempWeatherWind HumidityBarometerVisibility
1:54 PM
Sun, Sep 25
70 °FPassing clouds.14 mph47%30.15 "Hg10 mi
12:54 PM69 °FScattered clouds.9 mph45%30.18 "Hg10 mi
11:54 AM66 °FPassing clouds.9 mph50%30.20 "Hg10 mi
10:54 AM64 °FSunny.13 mph58%30.21 "Hg10 mi
9:54 AM58 °FSunny.No wind75%30.23 "Hg10 mi
8:54 AM49 °FPartly sunny.No wind86%30.24 "Hg10 mi
7:54 AM41 °FSunny.No wind89%30.24 "Hg10 mi
6:54 AM40 °FClear.No wind86%30.24 "Hg10 mi
5:54 AM39 °FClear.No wind89%30.24 "Hg10 mi
4:54 AM40 °FClear.No wind89%30.24 "Hg10 mi
3:54 AM41 °FClear.No wind89%30.24 "Hg10 mi
2:54 AM43 °FClear.No wind89%30.26 "Hg10 mi
1:54 AM42 °FClear.No wind85%30.26 "Hg10 mi
12:54 AM44 °FClear.3 mph85%30.28 "Hg10 mi
11:54 PM
Sat, Sep 24
44 °FClear.No wind89%30.29 "Hg10 mi
10:54 PM46 °FClear.No wind86%30.28 "Hg10 mi
9:54 PM47 °FClear.No wind86%30.28 "Hg10 mi
8:54 PM50 °FClear.No wind80%30.28 "Hg10 mi
7:54 PM54 °FClear.5 mph69%30.27 "Hg10 mi
6:54 PM59 °FSunny.7 mph56%30.28 "Hg10 mi
5:54 PM62 °FSunny.7 mph50%30.29 "Hg10 mi
4:54 PM63 °FSunny.7 mph47%30.29 "Hg10 mi
3:54 PM64 °FSunny.6 mph43%30.29 "Hg10 mi
Weather by CustomWeather, © 2016

See weather overviewHow to use our weather pages